Startseite
Über Mich
AHP4
Galerie
Sehschlangen
Tourenbuch
Bookmarks
Elektronik
Bewertung
Geschichten
[Tagesmessung] [Jahreswerte] [Information]

Messwerte vom 22.11.2021

Die letzten Messwerte von 23:58:45 Uhr:
KategorieMesswert
Temperatur [°C]0
Luftdruck [mBar]1012
Sonneneinstrahlung0
Wind [km/h]0 aus Ost
Niederschlag [l/m²]0
rel.Luftfeucht.96.6%
CO2 [ppm]545

Diagramme
Messwerte vom 22.11.2021
Tagesaggregation
KategorieMinimumMaximumSchnittSumme
Temperatur [°C]-182.8854
Luftdruck [mBar]99810131007.4500
Sonneneinstrahlung24168.9583
Wind [km/h]14
rF [%]63.396.691.99
Niederschlag [l/m²]0
CO2 [ppm]404635548.8
Einordnung alsFrosttag
Kalter Tag

Messungen an benachbarten Tagen: Zur Jahresaggregation 2021
Tabelle aller Messwerte
UhrzeitTemperatur [°C]Luftdruck [mBar]SonneWind [km/h]RichtungRegen [l/m²]rF [%]CO2 [ppm]
00:01:45 5 998 0 1 NW 0 96.6 600
00:04:46 5 999 0 5 NO 0 96.6 603
00:07:46 4 999 0 1 N 0 96.6 603
00:10:46 4 999 0 0 NW 0 96.6 609
00:13:47 4 1000 0 2 W 0 96.6 606
00:16:46 4 1000 0 1 W 0 96.6 603
00:19:46 4 999 0 4 N 0 96.6 595
00:22:47 4 1000 0 2 N 0 96.6 589
00:25:46 4 999 0 1 W 0 96.6 591
00:28:46 4 1000 0 3 O 0 96.6 594
00:31:46 4 1000 0 6 N 0 96.6 588
00:34:47 4 999 0 2 W 0 96.6 594
00:37:47 4 999 0 5 NW 0 96.6 589
00:40:47 4 1000 0 0 NO 0 96.6 589
00:43:45 4 999 0 2 0 96.6 591
00:46:47 4 1001 0 4 W 0 96.6 586
00:49:46 4 999 0 2 NW 0 96.6 585
00:52:47 4 1000 0 5 NW 0 96.6 589
00:55:43 4 999 0 3 0 96.6 594
00:58:48 4 1000 0 2 NW 0 96.6 592
01:01:46 4 1000 0 2 N 0 96.6 590
01:04:50 4 1000 0 3 W 0 96.6 585
01:07:46 4 1000 0 0 O 0 96.6 582
01:10:45 4 1000 0 4 N 0 96.6 579
01:13:46 4 1001 0 0 N 0 96.6 579
01:16:45 4 1000 0 3 SW 0 96.6 576
01:19:47 4 1001 0 3 NW 0 96.6 574
01:22:47 4 1002 0 5 NW 0 96.6 579
01:25:45 4 1000 0 5 W 0 96.6 576
01:28:44 4 1001 0 4 N 0 96.6 570
01:31:45 4 1001 0 0 N 0 96.6 570
01:34:46 4 1001 0 4 N 0 96.6 568
01:37:47 4 1001 0 1 0 96.6 565
01:40:46 4 1002 0 1 SO 0 96.6 570
01:43:44 4 1000 0 4 N 0 96.6 573
01:46:45 4 1000 0 1 NW 0 96.6 574
01:49:46 4 1000 0 2 N 0 96.6 567
01:52:45 4 1002 0 4 W 0 96.6 568
01:55:46 4 1001 0 3 W 0 96.6 568
01:58:44 4 1001 0 8 N 0 96.6 574
02:01:48 4 1003 0 3 N 0 96.6 565
02:04:47 4 1002 0 9 N 0 96.6 563
02:07:45 4 1002 0 3 O 0 96.6 553
02:10:48 4 1002 0 2 NO 0 96.6 550
02:13:46 4 1001 0 5 W 0 96.6 553
02:16:47 4 1002 0 5 NO 0 96.6 562
02:19:46 4 1003 0 5 N 0 96.6 558
02:22:46 4 1002 0 4 NW 0 96.6 565
02:25:45 4 1002 0 2 O 0 96.6 565
02:28:47 4 1002 0 5 NW 0 96.6 559
02:31:47 4 1002 0 5 N 0 96.6 564
02:34:46 4 1002 0 3 N 0 96.6 563
02:37:46 4 1002 0 7 O 0 96.6 563
02:40:47 4 1002 0 6 N 0 96.6 566
02:43:47 4 1002 0 5 0 96.6 566
02:46:48 4 1002 0 3 N 0 96.6 563
02:49:48 4 1002 0 4 NW 0 96.6 562
02:52:48 4 1002 0 2 SW 0 96.6 557
02:55:49 4 1002 0 3 NW 0 96.6 548
02:58:48 4 1002 0 8 NW 0 96.6 553
03:01:47 4 1002 0 1 N 0 96.6 556
03:04:48 4 1002 0 1 NO 0 96.6 559
03:07:45 4 1002 0 2 NW 0 96.6 551
03:10:46 4 1002 0 0 N 0 96.6 560
03:13:47 4 1002 0 6 N 0 96.6 560
03:16:48 4 1002 0 1 NO 0 96.6 562
03:19:46 4 1002 0 1 NO 0 96.6 557
03:22:49 4 1002 0 0 NW 0 96.6 551
03:25:48 4 1002 0 0 NW 0 96.6 551
03:28:47 4 1002 0 4 NO 0 96.6 557
03:31:46 4 1002 0 4 N 0 96.6 557
03:34:46 4 1002 0 2 O 0 96.6 556
03:37:47 4 1002 0 3 N 0 96.6 550
03:40:49 4 1002 0 1 NW 0 96.6 550
03:43:46 4 1002 0 2 NW 0 96.6 550
03:46:46 4 1002 0 2 O 0 96.6 550
03:49:51 4 1002 0 12 NO 0 96.6 557
03:52:45 4 1003 0 2 W 0 96.6 549
03:55:46 4 1002 0 2 N 0 96.6 556
03:58:46 4 1002 0 8 W 0 96.6 550
04:01:48 4 1002 0 2 N 0 96.6 553
04:04:51 4 1003 0 5 NW 0 96.6 548
04:07:45 4 1002 0 2 N 0 96.6 548
04:10:45 4 1003 0 4 NW 0 96.6 551
04:13:47 4 1002 0 5 N 0 96.6 553
04:16:46 4 1002 0 5 N 0 96.6 550
04:19:46 4 1002 0 1 N 0 96.6 559
04:22:46 4 1002 0 3 NO 0 96.6 555
04:25:46 4 1003 0 3 O 0 96.6 550
04:28:45 4 1003 0 2 N 0 96.6 551
04:31:48 4 1003 0 3 NO 0 96.6 551
04:34:47 4 1003 0 2 N 0 96.6 542
04:37:46 4 1003 0 2 NO 0 96.6 542
04:40:47 4 1003 0 2 NO 0 96.6 542
04:43:47 4 1003 0 2 W 0 96.6 551
04:46:48 4 1003 0 4 N 0 96.6 548
04:49:47 4 1003 0 3 NW 0 96.6 538
04:52:45 4 1003 0 1 N 0 96.6 542
04:55:45 4 1003 0 1 O 0 96.6 544
04:58:50 4 1003 0 3 NW 0 96.6 547
05:01:47 4 1003 0 4 NO 0 96.6 544
05:04:45 4 1003 0 3 W 0 96.6 541
05:07:49 4 1004 0 1 N 0 96.6 538
05:10:48 4 1004 0 4 N 0 96.6 535
05:13:47 4 1004 0 0 N 0 96.6 538
05:16:44 4 1004 0 2 N 0 96.6 542
05:19:46 4 1004 0 3 N 0 96.6 538
05:22:45 4 1004 0 5 N 0 96.6 538
05:25:47 4 1005 0 1 NW 0 96.6 541
05:28:45 4 1003 0 0 N 0 96.6 547
05:31:48 4 1004 0 2 NW 0 96.6 544
05:34:45 4 1003 0 5 N 0 96.6 545
05:37:46 4 1004 0 2 N 0 96.6 536
05:40:47 4 1004 0 2 W 0 96.6 531
05:43:49 4 1004 0 3 NW 0 96.6 530
05:46:46 4 1004 0 6 N 0 96.6 539
05:49:45 4 1004 0 5 O 0 96.6 538
05:52:47 4 1005 0 5 N 0 96.6 536
05:55:47 4 1005 0 5 NW 0 96.6 527
05:58:47 4 1005 0 7 NW 0 96.6 527
06:01:47 4 1005 0 4 W 0 96.6 529
06:04:45 4 1005 0 4 N 0 96.6 536
06:07:48 4 1005 0 2 NW 0 96.6 538
06:10:49 4 1004 0 2 NO 0 96.6 538
06:13:46 4 1005 0 0 N 0 96.6 539
06:16:47 4 1005 0 2 N 0 96.6 532
06:19:46 4 1006 0 4 N 0 96.6 523
06:22:45 4 1005 0 2 0 96.6 524
06:25:46 4 1005 0 3 N 0 96.6 530
06:28:46 4 1005 0 2 0 96.6 530
06:31:45 3 1006 0 4 N 0 96.6 530
06:34:45 3 1006 0 3 O 0 96.6 536
06:37:46 3 1006 0 1 O 0 96.6 538
06:40:47 3 1005 0 6 NW 0 96.6 538
06:43:47 3 1005 0 0 W 0 96.6 536
06:46:47 3 1006 0 1 W 0 96.6 533
06:49:45 3 1006 0 2 N 0 96.6 530
06:52:46 3 1006 0 3 N 0 96.6 527
06:55:46 3 1005 0 1 N 0 96.6 518
06:58:45 3 1006 0 1 N 0 96.6 524
07:01:51 3 1006 0 3 NW 0 96.6 524
07:04:48 3 1006 0 4 NW 0 96.6 532
07:07:47 3 1006 0 4 NW 0 96.6 527
07:10:46 3 1006 0 5 0 96.6 527
07:13:46 3 1006 0 3 W 0 96.6 533
07:16:46 2 1006 0 2 N 0 96.6 550
07:19:46 2 1006 0 2 N 0 96.6 559
07:22:48 2 1005 3 1 NW 0 96.6 568
07:25:47 2 1006 5 3 NW 0 96.6 565
07:28:48 2 1006 8 1 NO 0 96.6 568
07:31:50 2 1006 13 2 NW 0 96.6 572
07:34:47 2 1006 19 6 W 0 96.6 574
07:37:47 2 1006 26 7 N 0 96.6 577
07:40:47 2 1006 35 4 NW 0 96.6 407
07:43:47 2 1006 45 5 NW 0 96.6 404
07:46:48 2 1006 56 4 NW 0 96.6 404
07:49:47 2 1006 67 1 N 0 96.6 433
07:52:47 2 1006 78 3 NW 0 96.6 428
07:55:46 2 1006 88 4 N 0 96.6 413
07:58:49 2 1006 98 1 NW 0 96.6 407
08:01:47 2 1006 107 4 N 0 96.6 406
08:04:50 2 1006 116 5 NW 0 96.6 407
08:07:49 2 1006 122 6 NW 0 96.6 405
08:10:48 2 1006 129 9 NW 0 96.6 407
08:13:48 2 1007 135 6 N 0 96.6 407
08:16:47 2 1006 140 5 N 0 96.6 410
08:19:47 2 1007 144 5 NO 0 96.6 415
08:22:47 2 1006 147 5 NW 0 96.6 418
08:25:48 2 1007 149 7 NW 0 96.6 428
08:28:47 2 1006 152 4 NW 0 96.6 433
08:31:47 2 1007 154 4 N 0 96.6 439
08:34:47 2 1007 157 5 N 0 96.6 440
08:37:46 2 1007 158 3 N 0 96.6 440
08:40:47 2 1007 160 3 0 96.6 436
08:43:49 2 1007 161 5 NW 0 96.6 451
08:46:49 2 1007 163 5 NW 0 96.6 453
08:49:46 2 1007 164 5 N 0 96.6 443
08:52:46 2 1006 166 2 N 0 96.6 454
08:55:47 2 1007 167 2 W 0 96.6 460
08:58:47 2 1007 169 2 W 0 96.6 465
09:01:48 2 1008 170 4 N 0 96.6 470
09:04:46 2 1007 173 1 N 0 96.6 469
09:07:48 1 1008 174 1 N 0 96.6 486
09:10:49 2 1008 175 1 NW 0 96.6 493
09:13:47 2 1008 176 2 N 0 96.6 494
09:16:47 2 1008 176 1 O 0 96.6 490
09:19:47 2 1007 177 0 N 0 96.6 497
09:22:48 2 1008 178 0 N 0 96.6 497
09:25:49 2 1008 178 3 NO 0 96.6 507
09:28:48 2 1008 180 0 S 0 96.6 509
09:31:51 2 1007 179 2 N 0 96.6 505
09:34:47 2 1007 180 5 0 96.6 500
09:37:49 2 1007 182 2 NW 0 96.6 491
09:40:48 2 1008 181 6 W 0 96.6 500
09:43:51 2 1008 181 4 NW 0 96.6 506
09:46:46 2 1009 182 1 N 0 96.6 518
09:49:47 2 1009 182 0 NO 0 96.6 515
09:52:48 2 1009 182 6 S 0 96.6 520
09:55:47 3 1010 183 2 SW 0 96.6 512
09:58:48 3 1008 183 2 NO 0 96.6 518
10:01:48 3 1008 183 1 N 0 96.6 523
10:04:48 3 1008 184 3 NW 0 96.6 526
10:07:49 3 1008 184 2 0 96.6 529
10:10:47 3 1008 184 0 NO 0 96.6 527
10:13:47 3 1009 185 3 W 0 96.6 529
10:16:48 3 1009 185 5 NW 0 96.6 532
10:19:48 3 1009 185 3 NW 0 96.6 532
10:22:50 3 1008 186 4 NW 0 96.6 535
10:25:47 3 1009 187 3 NW 0 96.6 544
10:28:47 3 1009 188 6 N 0 96.5 548
10:31:46 3 1009 189 7 W 0 96.4 547
10:34:47 3 1009 191 2 NW 0 95.9 536
10:37:49 3 1009 192 4 NO 0 96.1 535
10:40:48 3 1009 192 1 NO 0 95.8 544
10:43:46 3 1010 192 6 N 0 95.3 541
10:46:47 3 1009 192 7 N 0 93.8 535
10:49:48 3 1009 192 5 NW 0 93.9 539
10:52:47 4 1009 192 3 NW 0 94.1 533
10:55:48 4 1009 193 2 O 0 93.6 533
10:58:49 4 1009 193 4 NW 0 92.9 541
11:01:50 4 1009 194 4 NO 0 92.7 550
11:04:49 4 1009 194 1 NW 0 92.1 550
11:07:48 4 1009 195 4 NO 0 91.8 547
11:10:46 4 1009 195 3 N 0 91.9 539
11:13:47 4 1009 195 1 NW 0 91 541
11:16:46 4 1010 195 1 NW 0 91.5 547
11:19:47 4 1009 195 2 O 0 90.8 548
11:22:45 4 1010 196 2 N 0 90.2 556
11:25:47 4 1009 196 6 NW 0 90.1 553
11:28:49 4 1009 196 3 SO 0 89 556
11:31:49 4 1009 196 4 NW 0 89.9 556
11:34:48 5 1010 197 11 NW 0 88.6 562
11:37:47 5 1010 197 6 N 0 87.2 556
11:40:47 5 1009 197 6 NW 0 86.4 553
11:43:48 5 1009 200 4 0 85.8 553
11:46:47 6 1010 200 0 O 0 85.5 562
11:49:48 6 1009 199 4 NW 0 80.8 559
11:52:47 6 1009 200 11 N 0 78.6 565
11:55:48 6 1010 200 7 S 0 78.4 565
11:58:46 6 1010 200 3 W 0 77.2 539
12:01:47 6 1010 202 5 N 0 77 533
12:04:48 6 1009 206 14 N 0 77.5 538
12:07:49 6 1009 206 2 W 0 75.2 553
12:10:47 6 1009 202 3 W 0 75.2 553
12:13:46 6 1010 201 11 N 0 75 554
12:16:49 6 1010 201 9 W 0 73.7 553
12:19:48 6 1009 204 1 O 0 73.3 551
12:22:46 6 1009 203 3 NO 0 73.7 559
12:25:50 6 1009 203 4 N 0 73.4 559
12:28:49 7 1009 209 7 NW 0 73.2 566
12:31:46 7 1009 212 4 NO 0 73.9 571
12:34:48 7 1010 214 4 N 0 74.7 570
12:37:46 7 1010 213 3 N 0 74.7 574
12:40:49 7 1010 214 2 SO 0 72.1 589
12:43:46 7 1010 214 12 0 71.3 581
12:46:48 7 1010 215 3 N 0 70.3 579
12:49:46 7 1009 216 0 N 0 71.1 575
12:52:31 6 1009 217 1 N 0 63.3 580
12:55:49 8 1009 218 8 NW 0 70.8 582
12:58:52 8 1010 219 7 NW 0 70.1 584
13:01:46 8 1009 219 2 O 0 70.1 583
13:04:47 8 1009 219 5 NW 0 70.1 574
13:07:46 8 1010 219 4 N 0 69 571
13:10:48 8 1009 219 3 N 0 69.4 574
13:13:46 8 1009 219 0 N 0 71.1 579
13:16:53 8 1009 219 1 NO 0 67 583
13:19:49 8 1010 220 11 NW 0 66.9 588
13:22:47 8 1009 219 3 NW 0 67.4 591
13:25:49 8 1009 220 4 NW 0 68 592
13:28:48 8 1009 220 3 NW 0 69.1 592
13:31:47 8 1009 220 4 O 0 70.6 592
13:34:48 8 1010 222 3 O 0 69 591
13:37:47 8 1009 225 0 N 0 69 589
13:40:47 8 1009 228 3 W 0 69.1 601
13:43:48 8 1009 229 1 NW 0 70.8 603
13:46:49 8 1010 230 4 NW 0 68.4 603
13:49:47 7 1010 230 2 N 0 68.6 593
13:52:47 7 1009 234 4 0 69.2 597
13:55:48 7 1009 241 1 NW 0 72.4 597
13:58:47 7 1009 241 1 NW 0 72.6 601
14:01:47 7 1010 241 6 N 0 69.7 597
14:04:45 7 1010 241 2 W 0 68.6 596
14:07:46 7 1009 240 3 N 0 70.6 603
14:10:53 7 1010 241 2 W 0 72.1 600
14:13:50 7 1010 239 3 NW 0 72.4 592
14:16:47 7 1010 231 6 N 0 71.3 588
14:19:48 6 1010 230 7 N 0 70.5 590
14:22:47 6 1010 235 5 W 0 74.4 594
14:25:47 6 1010 241 3 W 0 76.6 594
14:28:48 6 1009 237 2 NW 0 77.2 593
14:31:46 6 1010 239 4 W 0 77.9 600
14:34:47 6 1009 230 1 W 0 78.4 605
14:37:49 6 1010 235 3 NW 0 78.5 599
14:40:46 6 1010 238 5 W 0 79 594
14:43:50 6 1009 237 2 NW 0 78.8 600
14:46:46 6 1010 224 5 W 0 78.8 598
14:49:48 6 1010 238 5 W 0 78.9 602
14:52:47 6 1010 224 0 W 0 79.3 609
14:55:46 6 1010 227 8 W 0 79.6 600
14:58:48 6 1010 222 7 N 0 79.7 599
15:01:47 6 1010 226 5 W 0 79.9 601
15:04:49 5 1010 224 0 NW 0 80 594
15:07:46 5 1010 210 7 W 0 80.4 603
15:10:46 5 1010 211 4 N 0 80.9 603
15:13:49 5 1009 189 4 NW 0 80.6 612
15:16:49 5 1010 188 3 NW 0 80.8 614
15:19:49 5 1010 186 1 NW 0 81.3 612
15:22:50 5 1010 185 1 NW 0 82.2 603
15:25:48 5 1010 184 1 N 0 82.5 612
15:28:49 5 1010 182 2 W 0 83.1 609
15:31:48 5 1010 181 3 NW 0 83.5 610
15:34:49 5 1010 179 2 NW 0 83.6 610
15:37:48 5 1010 177 2 NW 0 83.7 611
15:40:46 5 1010 175 1 N 0 83.9 615
15:43:46 5 1010 172 3 NW 0 84 611
15:46:48 4 1010 170 2 NW 0 84.2 615
15:49:48 4 1010 167 1 NW 0 84.5 612
15:52:48 4 1010 163 0 NW 0 84.7 620
15:55:47 4 1010 159 1 NW 0 85 620
15:58:49 4 1010 155 0 SW 0 85.1 632
16:01:47 4 1010 149 0 SW 0 85.5 632
16:04:48 4 1010 143 0 SW 0 85.7 635
16:07:48 4 1010 136 0 SO 0 85.8 626
16:10:51 3 1010 128 0 S 0 85.9 632
16:13:48 3 1010 119 0 S 0 86.5 630
16:16:47 3 1010 109 1 SW 0 86.8 629
16:19:46 3 1010 98 1 SW 0 87.2 631
16:22:49 3 1010 87 0 SW 0 87.6 632
16:25:48 3 1010 75 0 SW 0 87.7 626
16:28:49 3 1010 62 0 SW 0 87.8 629
16:31:48 3 1010 49 0 SW 0 88.1 630
16:34:48 3 1010 37 0 S 0 88.3 630
16:37:48 2 1010 27 0 S 0 88.6 626
16:40:47 2 1010 19 0 SW 0 89.3 626
16:43:47 2 1010 12 1 SW 0 89.7 632
16:46:47 2 1010 8 0 SW 0 90 621
16:49:49 2 1010 5 0 SW 0 90.1 621
16:52:47 2 1010 3 0 SW 0 90.2 615
16:55:45 2 1010 0 0 SW 0 90.4 612
16:58:47 2 1010 0 0 SW 0 90.4 600
17:01:46 2 1010 0 0 SW 0 90.4 595
17:04:47 1 1010 0 0 SW 0 90.6 583
17:07:46 1 1010 0 0 SW 0 90.6 585
17:10:45 1 1010 0 0 SW 0 90.6 577
17:13:48 1 1010 0 0 SW 0 90.7 582
17:16:45 1 1010 0 0 SW 0 90.8 576
17:19:46 1 1010 0 0 SW 0 90.9 572
17:22:46 1 1010 0 0 SW 0 91.4 568
17:25:48 1 1010 0 0 SW 0 91.7 560
17:28:46 1 1010 0 0 SW 0 91.9 574
17:31:46 1 1010 0 0 SW 0 92.3 571
17:34:46 1 1010 0 0 SW 0 92.4 562
17:37:46 0 1010 0 0 SW 0 92.6 554
17:40:46 0 1010 0 0 SW 0 92.8 536
17:43:48 0 1010 0 0 SW 0 92.9 532
17:46:45 0 1011 0 0 SW 0 92.9 532
17:49:45 0 1011 0 0 SW 0 93 541
17:52:46 0 1010 0 0 SW 0 93.1 536
17:55:45 0 1010 0 0 SW 0 93.3 530
17:58:47 0 1010 0 0 SW 0 93.4 527
18:01:46 0 1011 0 0 SW 0 93.6 527
18:04:47 0 1010 0 0 SW 0 93.8 533
18:07:48 0 1010 0 0 SW 0 94 530
18:10:47 0 1010 0 0 SW 0 94.2 521
18:13:46 0 1011 0 0 SW 0 94.3 515
18:16:47 0 1010 0 0 SW 0 94.5 503
18:19:48 0 1010 0 0 SW 0 94.6 507
18:22:48 0 1010 0 0 SW 0 94.7 507
18:25:47 0 1010 0 0 SW 0 94.8 510
18:28:47 0 1010 0 0 SW 0 94.8 508
18:31:47 0 1010 0 0 SW 0 94.8 516
18:34:49 0 1010 0 0 SW 0 94.9 522
18:37:47 0 1010 0 0 SW 0 95 519
18:40:47 0 1010 0 0 SW 0 95.2 519
18:43:47 0 1010 0 0 SW 0 95.3 516
18:46:47 0 1010 0 0 SO 0 95.6 515
18:49:48 0 1010 0 0 SO 0 95.7 512
18:52:48 -1 1011 0 0 SO 0 95.9 513
18:55:46 -1 1011 0 0 SO 0 96.1 518
18:58:48 -1 1010 0 0 SO 0 96.3 512
19:01:44 0 1011 0 0 S 0 96.3 518
19:04:46 0 1010 0 0 S 0 96.6 524
19:07:47 0 1011 0 0 S 0 96.6 530
19:10:49 0 1010 0 0 SO 0 96.6 530
19:13:47 0 1011 0 0 SO 0 96.6 534
19:16:50 0 1011 0 0 SO 0 96.6 528
19:19:48 0 1010 0 0 SO 0 96.6 524
19:22:47 0 1011 0 0 SO 0 96.6 532
19:25:48 0 1010 0 0 SO 0 96.6 536
19:28:47 -1 1010 0 0 SO 0 96.6 544
19:31:49 -1 1010 0 0 SO 0 96.6 538
19:34:47 0 1010 0 0 SO 0 96.6 533
19:37:48 0 1010 0 0 SO 0 96.6 527
19:40:47 0 1010 0 0 SO 0 96.6 521
19:43:46 0 1010 0 0 SO 0 96.6 521
19:46:48 0 1011 0 0 SO 0 96.6 530
19:49:46 0 1011 0 0 S 0 96.6 530
19:52:47 0 1010 0 0 W 0 96.6 536
19:55:47 0 1010 0 2 W 0 96.6 538
19:58:45 0 1011 0 0 W 0 96.6 544
20:01:47 0 1010 0 0 W 0 96.6 539
20:04:43 0 1011 0 3 O 0 96.6 541
20:07:47 0 1010 0 0 S 0 96.6 536
20:10:46 0 1010 0 0 W 0 96.6 536
20:13:47 0 1010 0 0 0 96.6 545
20:16:46 0 1010 0 1 SW 0 96.6 548
20:19:49 0 1010 0 0 SW 0 96.6 539
20:22:46 0 1010 0 0 SW 0 96.6 547
20:25:49 0 1011 0 0 SW 0 96.6 548
20:28:46 0 1010 0 0 S 0 96.6 542
20:31:45 0 1010 0 0 S 0 96.6 515
20:34:49 0 1010 0 0 SO 0 96.6 510
20:37:48 0 1010 0 0 SO 0 96.6 513
20:40:46 0 1011 0 0 S 0 96.6 509
20:43:45 0 1011 0 2 W 0 96.6 516
20:46:46 -1 1010 0 0 SO 0 96.6 521
20:49:47 -1 1011 0 0 SO 0 96.6 527
20:52:49 -1 1011 0 0 S 0 96.6 527
20:55:46 -1 1011 0 0 S 0 96.6 521
20:58:49 -1 1011 0 0 SW 0 96.6 520
21:01:47 -1 1011 0 0 SW 0 96.6 524
21:04:46 -1 1011 0 0 0 96.6 526
21:07:46 -1 1011 0 0 S 0 96.6 526
21:10:48 -1 1010 0 0 SW 0 96.6 521
21:13:47 -1 1010 0 0 SO 0 96.6 524
21:16:47 -1 1010 0 0 SO 0 96.6 536
21:19:46 -1 1011 0 0 N 0 96.6 541
21:22:46 -1 1011 0 0 S 0 96.6 547
21:25:46 -1 1011 0 0 S 0 96.6 541
21:28:48 -1 1011 0 0 SW 0 96.6 542
21:31:47 -1 1011 0 1 SW 0 96.6 536
21:34:46 -1 1010 0 0 SW 0 96.6 530
21:37:46 -1 1011 0 0 S 0 96.6 533
21:40:48 -1 1012 0 0 W 0 96.6 538
21:43:46 -1 1011 0 1 SW 0 96.6 539
21:46:47 -1 1012 0 0 SO 0 96.6 539
21:49:47 -1 1011 0 0 S 0 96.6 538
21:52:45 -1 1011 0 0 W 0 96.6 542
21:55:46 0 1012 0 0 S 0 96.6 542
21:58:47 0 1012 0 1 SO 0 96.6 545
22:01:47 0 1011 0 0 SO 0 96.6 542
22:04:45 0 1012 0 1 S 0 96.6 543
22:07:47 0 1011 0 0 O 0 96.6 540
22:10:48 0 1012 0 0 SO 0 96.6 536
22:13:48 0 1012 0 0 O 0 96.6 536
22:16:47 0 1011 0 1 NW 0 96.6 539
22:19:47 0 1012 0 0 S 0 96.6 539
22:22:47 0 1012 0 0 SW 0 96.6 542
22:25:47 0 1011 0 0 SW 0 96.6 539
22:28:45 0 1013 0 0 SW 0 96.6 541
22:31:49 0 1012 0 0 SW 0 96.6 536
22:34:48 0 1012 0 2 SW 0 96.6 537
22:37:48 0 1012 0 0 SW 0 96.6 541
22:40:48 0 1011 0 1 SW 0 96.6 548
22:43:47 0 1012 0 0 SW 0 96.6 542
22:46:47 0 1011 0 0 SW 0 96.6 546
22:49:47 0 1011 0 0 S 0 96.6 548
22:52:47 0 1011 0 1 O 0 96.6 545
22:55:46 0 1011 0 0 S 0 96.6 536
22:58:47 0 1012 0 0 W 0 96.6 531
23:01:48 0 1012 0 0 SW 0 96.6 536
23:04:47 0 1012 0 0 W 0 96.6 542
23:07:49 0 1012 0 1 S 0 96.6 544
23:10:47 0 1012 0 1 S 0 96.6 545
23:13:47 0 1012 0 0 NO 0 96.6 548
23:16:48 0 1012 0 1 W 0 96.6 550
23:19:48 0 1011 0 2 W 0 96.6 554
23:22:48 0 1011 0 0 SO 0 96.6 551
23:25:47 0 1012 0 0 S 0 96.6 546
23:28:48 0 1011 0 1 SO 0 96.6 540
23:31:45 0 1011 0 1 W 0 96.6 539
23:34:48 0 1012 0 0 N 0 96.6 545
23:37:46 0 1012 0 1 W 0 96.6 550
23:40:48 0 1011 0 1 SW 0 96.6 551
23:43:46 0 1012 0 0 S 0 96.6 542
23:46:48 0 1011 0 1 NO 0 96.6 554
23:49:48 0 1012 0 0 S 0 96.6 549
23:52:47 0 1011 0 0 SW 0 96.6 550
23:55:49 0 1012 0 0 NO 0 96.6 542
23:58:45 0 1012 0 0 O 0 96.6 545

Letzte Änderung : 04-Jan-2022
Copyright Jens Köhler, Wolfsburg, Obere Dorfstraße 10d